Regional Weather Roundup
Issued by NWS San Angelo, TX

Home | Current Version | Previous Version | Text Only | Print | Product List | Glossary On
Versions: 1 2 3 4 5 6 7 8 9 10 11 12 13 14 15 16 17 18 19 20 21 22 23 24 25 26 27 28 29 30 31 32 33 34 35 36 37 38 39 40 41 42 43 44 45 46 47 48 49 50
000
ASUS44 KSJT 021111
RWRSJT
WEST CENTRAL TEXAS REGIONAL WEATHER ROUNDUP
NATIONAL WEATHER SERVICE SAN ANGELO TX
600 AM CDT WED SEP 02 2015

NOTE: "FAIR" INDICATES FEW OR NO CLOUDS BELOW 12,000 FEET WITH NO
SIGNIFICANT WEATHER AND/OR OBSTRUCTIONS TO VISIBILITY.

TXZ049-054-064>066-071>073-076>078-098-099-113-114-127-128-139-140-
154-155-168>170-021200
...LOCATIONS ACROSS WEST CENTRAL TEXAS...

CITY           SKY/WX    TMP DP  RH WIND       PRES   REMARKS
SAN ANGELO     CLEAR     71  65  81 SW6       30.05R
ABILENE        CLEAR     72  64  76 S8        30.05R
DYESS AFB      CLEAR     71  65  80 SE7       30.04R
JUNCTION       CLEAR     70  66  87 E3        30.06S
SWEETWATER     CLEAR     72  63  72 S12       30.09S
BROWNWOOD      NOT AVBL
COLEMAN        SUNNY     70  65  83 S3        30.06S
SONORA         CLEAR     70  66  88 CALM      30.11S
OZONA          FAIR      70  64  83 SE5       30.09F
BRADY          CLEAR     70  66  88 SE3       30.06R
$$

TEXAS PANHANDLE/OKLAHOMA PANHANDLE

CITY           SKY/WX    TMP DP  RH WIND       PRES   REMARKS
AMARILLO       CLOUDY    71  54  54 S16       30.07F
BORGER         CLOUDY    75  55  49 SW8       30.05S
CANADIAN       PTCLDY    71  60  67 SW9       30.01F
DALHART        LGT RAIN  67  57  70 SW8       30.08S
DUMAS          PTSUNNY   72  54  52 S10       30.07S
GUYMON         NOT AVBL
HEREFORD       CLOUDY    69  56  64 SW7       30.10S
PAMPA          PTSUNNY   71  58  63 S8        30.07S
PERRYTON       MOCLDY    74  58  57 S13       30.02S
$$

SOUTHERN PANHANDLE/SOUTH PLAINS/ROLLING PLAINS

CITY           SKY/WX    TMP DP  RH WIND       PRES   REMARKS
LUBBOCK        PTCLDY    66  55  67 SW5       30.09R
SNYDER         CLEAR     69  60  73 S7        30.08R
CHILDRESS      CLEAR     70  59  68 SE7       30.02S
SEMINOLE       MOSUNNY   62  51  66 W3        30.10S
$$

PERMIAN BASIN

CITY           SKY/WX    TMP DP  RH WIND       PRES   REMARKS
MIDLAND        CLEAR     72  55  55 S8        30.06S
ODESSA         CLEAR     73  56  54 S9        30.07S
WINK           CLEAR     70  55  59 SE7       30.04S
$$

FAR WEST/SOUTHWEST MOUNTAINS/TRANS PECOS

CITY           SKY/WX    TMP DP  RH WIND       PRES   REMARKS
ALPINE         MOSUNNY   63  53  68 SW6       30.19S
DRYDEN           N/A     74  67  78 CALM      30.04S
EL PASO        PTCLDY    74  48  39 NE6       30.07R
FORT STOCKTON  CLEAR     70  61  73 SE14      30.06S
GUADALUPE PASS CLEAR     72  49  44 SE3       30.21F
MARFA          PTCLDY    55  48  76 N6        30.18S
PECOS          SUNNY     69  55  60 E9        30.03S
$$

DALLAS/FORT WORTH METROPLEX

CITY           SKY/WX    TMP DP  RH WIND       PRES   REMARKS
DFW AIRPORT    CLEAR     74  68  81 S8        30.03S
FTW MEACHAM    CLEAR     75  68  78 S9        30.03S
DAL-EXECUTIVE  CLEAR     72  67  84 S5        30.04S
GRAND PRAIRIE  CLEAR     73  69  85 S6        30.06R
ADDISON        NOT AVBL
MESQUITE       SUNNY     69  67  93 SE3       30.06R
LANCASTER      SUNNY     70  65  83 CALM      30.06S
$$

NORTH CENTRAL TEXAS

CITY           SKY/WX    TMP DP  RH WIND       PRES   REMARKS
SHRMAN/DENISON SUNNY     72  69  90 S6        30.05S
GAINESVILLE    CLEAR     70  65  85 SE5       30.06S
BRIDGEPORT     SUNNY     68  67  99 CALM      30.05S
DENTON         CLEAR     72  66  81 S3        30.04R
WAXAHACHIE     SUNNY     69  68  98 CALM      30.07R
GRANBURY       SUNNY     73  67  81 SE6       30.05S
$$

WESTERN NORTH TEXAS

CITY           SKY/WX    TMP DP  RH WIND       PRES   REMARKS
WICHITA FALLS  CLEAR     72  66  81 S9        30.02R
VERNON         SUNNY     72  60  65 S3        30.03R
BRECKENRIDGE   SUNNY     74  64  70 S7        30.04R
COMANCHE       CLEAR     68  65  89 CALM      30.06R
$$

CENTRAL AND SOUTH CENTRAL TEXAS

CITY           SKY/WX    TMP DP  RH WIND       PRES   REMARKS
AUSTIN/BERGSTM PTCLDY    66  65  96 CALM      30.04R
WACO           PTCLDY    72  69  90 S8        30.05R
HILLSBORO      SUNNY     69  66  89 SE6       30.06R
TEMPLE         PTCLDY    70  64  83 S3        30.05S
KILLEEN-GRAY   CLEAR     68  66  93 S5        30.04F
FORT HOOD      CLEAR     69  68  96 SE5       30.03F
GEORGETOWN     PTCLDY    70  66  88 CALM      30.06R
LAGO VISTA     FAIR      70  67  89 S3        30.07R
SAN MARCOS     PTCLDY    68  61  77 CALM      30.05R
NEW BRAUNFELS  CLEAR     69  66  90 NE3       30.02S
RANDOLPH AFB   PTCLDY    72  70  94 CALM      30.03S
SAN ANTONIO    MOCLDY    74  69  85 E5        30.03F
STINSON        CLEAR     73  69  87 NE3       30.00F
PLEASANTON     NOT AVBL
LA GRANGE      CLEAR     72  71  98 CALM      30.01S
GIDDINGS       SUNNY     69  67  94 CALM      30.07S FOG
$$

EAST TEXAS

CITY           SKY/WX    TMP DP  RH WIND       PRES   REMARKS
PARIS          CLEAR     70  63  78 SE5       30.06S
CLARKSVILLE    NOT AVBL
TYLER          CLEAR     71  67  87 S6        30.06S
LONGVIEW       CLEAR     71  69  93 CALM      30.06R
PALESTINE      SUNNY     68  67  98 CALM      30.07S
NACOGDOCHES    MOCLDY    70  68  94 CALM      30.06R
$$

TEXAS HILL COUNTRY AND EDWARDS PLATEAU

CITY           SKY/WX    TMP DP  RH WIND       PRES   REMARKS
LLANO          SUNNY     68  66  94 CALM      30.08S
HORSESHOE BAY  FAIR      70  68  93 CALM      30.06R
KERRVILLE      CLOUDY    72  68  89 SE7       30.06F
FREDERICKSBRG  CLOUDY    70  66  86 CALM      30.06F
ROCKSPRINGS    CLOUDY    70  66  88 S12       30.10S
HONDO          CLOUDY    73  70  90 E6        30.05S
UVALDE         CLOUDY    74  69  86 E5        30.04S
DEL RIO        CLOUDY    77  69  76 E7        30.00S
$$

SOUTHEAST TEXAS

CITY           SKY/WX    TMP DP  RH WIND       PRES   REMARKS
COLLEGE STN    CLEAR     71  68  90 NE3       30.04S
CALDWELL       SUNNY     70  70 100 CALM      30.07S
CROCKETT       FOG       68  68 100 CALM      30.09R VSB 3/4
BRENHAM        CLEAR     71  71  99 CALM      30.05R
HUNTSVILLE     PTCLDY    70  68  93 CALM      30.05S
CONROE         CLOUDY    72  70  93 E3        30.06R
HOUSTON BUSH   LGT RAIN  74  72  93 E6        30.04S
HOUSTON HOBBY  RAIN      72  71  97 CALM      30.03S
PERLAND        RAIN      73  71  93 CALM      30.04S FOG
WHARTON        DRIZZLE   73  72  94 CALM      30.03R
$$

THE UPPER TEXAS COAST

CITY           SKY/WX    TMP DP  RH WIND       PRES   REMARKS
ORANGE         DRIZZLE  N/A N/A N/A CALM      30.05S
PORT ARTHUR    MOCLDY    74  73  97 N5        30.02S
GALVESTON      TSTM      75  73  93 CALM      30.03F FOG
ANGLETON       RAIN      74  72  93 NE5       30.03R FOG
BAY CITY       LGT RAIN  74  74 100 NE9       30.01R
$$

TEXAS COASTAL BEND, RIO GRANDE PLAINS DEEP SOUTH TEXAS

CITY           SKY/WX    TMP DP  RH WIND       PRES   REMARKS
VICTORIA       MOCLDY    73  73 100 NE6       30.01R
BEEVILLE       PTSUNNY   71  71 100 NE5       30.00R
ROCKPORT       HVY RAIN  77  73  87 NE5       29.98R FOG
PORT ARANSAS   MOSUNNY   80  74  83 SE3       29.97R
PORT LAVACA    PTSUNNY   73  72  96 E10       29.99F
CORPUS CHRISTI PTCLDY    76  73  91 CALM      29.98R
KINGSVILLE NAS CLEAR     73  73 100 N5        29.97S
COTULLA        CLOUDY    78  73  84 E6        30.00S
LAREDO         CLOUDY    77  74  90 SE6       30.00R
BROWNSVILLE    CLEAR     75  74  96 CALM      29.95R
PORT ISABEL    CLEAR     80  77  90 CALM      29.95R
HEBBRONVILLE   NOT AVBL
MCALLEN        CLEAR     80  75  84 E5        29.96S
WESLACO        CLEAR     75  73  93 CALM      29.96R
FALFURRIAS     SUNNY     74  73  94 CALM      29.97R
EDINBURG       FOG       76  73  91 CALM      29.96S VSB 1
$$


USA.gov is the U.S. government's official web portal to all federal, state and local government web resources and services.